Location: Unspecified
(49.9820°N, 20.4363°E)
Time: 11:17:37
(UTC+01:00)

ISS - Visible Passes

Search period start: 23 February 2024 00:00
Search period end: 04 March 2024 00:00
Orbit: 414 x 417 km, 51.6° (Epoch: 23 February)

Date Brightness Start Highest point End Pass type
(mag) Time Alt. Az. Time Alt. Az. Time Alt. Az.
23 Feb -3.6 04:32:42 62° SSE 04:32:44 62° SSE 04:36:04 10° ENE visible
24 Feb -1.2 03:45:59 22° E 03:45:59 22° E 03:47:23 10° ENE visible
24 Feb -3.7 05:18:52 23° W 05:20:50 70° N 05:24:11 10° ENE visible
25 Feb -3.9 04:32:06 82° NNW 04:32:07 83° NNW 04:35:30 10° ENE visible
26 Feb -1.4 03:45:16 25° ENE 03:45:16 25° ENE 03:46:47 10° ENE visible
26 Feb -3.6 05:18:08 20° WNW 05:20:15 63° N 05:23:36 10° E visible
27 Feb -3.7 04:31:15 62° NNW 04:31:28 65° N 04:34:49 10° ENE visible
28 Feb -1.6 03:44:20 27° ENE 03:44:20 27° ENE 03:46:01 10° ENE visible
28 Feb -3.7 05:17:13 18° WNW 05:19:33 72° N 05:22:54 10° E visible
29 Feb -3.6 04:30:16 57° NW 04:30:42 65° N 04:34:02 10° E visible
01 Mar -1.8 03:43:19 29° ENE 03:43:19 29° ENE 03:45:09 10° E visible
01 Mar -3.8 05:16:11 17° WNW 05:18:39 79° SSW 05:22:00 10° ESE visible
02 Mar -3.8 04:29:15 60° WNW 04:29:47 82° NNE 04:33:08 10° ESE visible
03 Mar -1.9 03:42:18 30° E 03:42:18 30° E 03:44:11 10° E visible
03 Mar -3.3 05:15:11 17° W 05:17:30 44° SSW 05:20:42 10° SE visible
